Weather in Novyy Karakan

Russia / Kemerovo Oblast     54°23′32″N   86°42′27″E
temp.,
°C
wind,
m/s
gust,
m/s
humid.,
%
clouds,
%
prec.,
mm/h
press.,
hPa
HPBL,
m
8 may, sat
sat801:00+9wsw3106295 0.0 1016206
04:00+7w38710 0.0 1018167
07:00+7wsw37701 0.0 1019225
10:00+13w58400 0.0 10191531
13:00+16w693747 0.0 10172077
16:00+16w61145100 0.0 10161749
19:00+16wsw61051100 0.0 10151390
22:00+13wsw7146361 0.3 1016496
9 may, sun
sun901:00+10wsw377999 0.6 1016141
04:00+9w348579 0.1 101669
07:00+8nnw487331 0.1 1017387
10:00+9nnw56595 0.0 1018949
13:00+11nnw56445 0.0 10181491
16:00+13nnw56395 0.0 10181769
19:00+12n56407 0.0 10181906
22:00+7ne410590 0.0 1020264
10 may, mon
mon1001:00+5ne410660 0.0 1020245
04:00+3nne411680 0.0 1019225
07:00+4ne357069 0.0 1019184
10:00+10ene34475 0.0 1018798
13:00+14ene56325 0.0 10151689
16:00+16ene782971 0.0 10132173
19:00+14ene71140100 0.0 10121109
22:00+10ene7145030 0.0 1013564
11 may, tue
tue1101:00+7ne6126117 0.0 1013456
04:00+6ne511692 0.0 1012258
07:00+7ne49660 0.0 1012288
10:00+13ene45405 0.0 1012908
13:00+16ne443132 0.0 10111684
16:00+18ene552899 0.0 10112364
19:00+16ene6938100 0.0 1012899
22:00+12ne51249100 0.0 1013320
12 may, wed
wed1201:00+10ne61255100 0.0 1013404
04:00+8nne4858100 0.0 1013220
07:00+8ene2360100 0.0 1013148
10:00+12e3448100 0.0 1013845
13:00+15ne1340100 0.0 10131639
16:00+17ne5531100 0.0 10122322
19:00+15nne6738100 0.0 10141060
22:00+11nne51147100 0.0 1016350